Location: Newark
(33.6439°N, 114.9881°W)
Time: 21:48:17
(UTC+00:00)

A-11 Canister half - Pass Details

Date: 23 August 2019
Orbit: 1527 x 1682 km, 47.3° (Epoch: 17 September)

Event Time Altitude Azimuth Distance (km) Brightness Sun altitude
Rises 00:45:52 0° 305° (NW) 4,933 12.6 18.2°
Reaches altitude 10° 00:49:07 10° 309° (NW) 3,947 12.2 17.5°
Maximum altitude 00:59:12 63° 29° (NNE) 1,837 9.6 15.4°
Drops below altitude 10° 01:09:06 10° 110° (ESE) 3,886 10.6 13.3°
Sets 01:12:16 0° 113° (ESE) 4,853 11.0 12.7°
